Location: ??
(35.5052°N, 139.7262°E)
Time: 00:04:45
(UTC+00:00)

Cosmos 1932 - Pass Details

Date: 22 October 2021
Orbit: 943 x 987 km, 65.0° (Epoch: 01 December)

Event Time Altitude Azimuth Distance (km) Brightness Sun altitude
Rises 10:01:47 0° 337° (NNW) 3,616 7.8 -26.0°
Reaches altitude 10° 10:04:29 10° 344° (NNW) 2,672 7.0 -26.5°
Enters shadow 10:08:51 36° 21° (NNE) 1,453 5.2 -27.4°
